Location: Newark
(45.2500°N, 7.5833°E)
Time: 14:12:34
(UTC+00:00)

NUDT-PHONESAT - Pass Details

Date: 22 February 2020
Orbit: 486 x 502 km, 97.4° (Epoch: 07 April)

Event Time Altitude Azimuth Distance (km) Brightness Sun altitude
Rises 17:49:44 0° 192° (SSW) 2,543 ? -8.4°
Reaches altitude 10° 17:52:01 10° 204° (SSW) 1,669 ? -8.8°
Maximum altitude 17:55:06 27° 264° (W) 966 ? -9.3°
Drops below altitude 10° 17:58:14 10° 324° (NW) 1,685 ? -9.9°
Sets 18:00:33 0° 337° (NNW) 2,574 ? -10.3°
